TimePDT,TemperatureF,Dew PointF,Humidity,Sea Level PressureIn,VisibilityMPH,Wind Direction,Wind SpeedMPH,Gust SpeedMPH,PrecipitationIn,Events,Conditions,WindDirDegrees,DateUTC
12:55 AM,52.0,21.0,30,29.99,10.0,SSE,4.6,-,N/A,,Clear,150,2012-10-03 07:55:00
1:55 AM,44.1,18.0,35,30.03,10.0,Calm,Calm,-,N/A,,Clear,0,2012-10-03 08:55:00
2:55 AM,55.0,15.1,21,30.01,10.0,NNE,9.2,-,N/A,,Clear,30,2012-10-03 09:55:00
3:55 AM,48.9,19.9,32,30.03,10.0,Calm,Calm,-,N/A,,Clear,0,2012-10-03 10:55:00
4:55 AM,43.0,24.1,47,30.06,10.0,Calm,Calm,-,N/A,,Clear,0,2012-10-03 11:55:00
5:55 AM,37.0,21.9,54,30.08,10.0,Calm,Calm,-,N/A,,Clear,0,2012-10-03 12:55:00
6:55 AM,34.0,18.0,52,30.11,10.0,Calm,Calm,-,N/A,,Clear,0,2012-10-03 13:55:00
7:55 AM,45.0,19.9,37,30.12,10.0,Calm,Calm,-,N/A,,Clear,0,2012-10-03 14:55:00
8:55 AM,52.0,21.0,30,30.11,10.0,Calm,Calm,-,N/A,,Clear,0,2012-10-03 15:55:00
9:55 AM,57.0,19.0,23,30.10,10.0,East,3.5,-,N/A,,Clear,80,2012-10-03 16:55:00
10:55 AM,62.1,16.0,17,30.10,10.0,Variable,5.8,-,N/A,,Clear,0,2012-10-03 17:55:00
11:55 AM,66.0,15.1,14,30.08,10.0,NNW,5.8,-,N/A,,Clear,340,2012-10-03 18:55:00
12:55 PM,70.0,12.9,11,30.06,10.0,North,6.9,-,N/A,,Clear,350,2012-10-03 19:55:00
1:55 PM,73.0,12.9,10,30.04,10.0,Variable,6.9,-,N/A,,Clear,0,2012-10-03 20:55:00
2:55 PM,75.9,7.0,7,29.99,10.0,NNW,6.9,-,N/A,,Clear,340,2012-10-03 21:55:00
3:55 PM,77.0,7.0,7,29.99,10.0,North,9.2,-,N/A,,Clear,360,2012-10-03 22:55:00
4:55 PM,75.9,8.1,7,30.00,10.0,NNE,8.1,-,N/A,,Clear,20,2012-10-03 23:55:00
5:55 PM,72.0,8.1,8,30.01,10.0,NNE,9.2,-,N/A,,Clear,20,2012-10-04 00:55:00
6:55 PM,64.0,12.0,13,30.05,10.0,North,4.6,-,N/A,,Clear,10,2012-10-04 01:55:00
7:55 PM,57.9,16.0,19,30.04,10.0,North,3.5,-,N/A,,Clear,10,2012-10-04 02:55:00
8:55 PM,48.9,25.0,39,30.07,10.0,East,3.5,-,N/A,,Clear,90,2012-10-04 03:55:00
9:55 PM,48.0,24.1,39,30.07,10.0,SSE,3.5,-,N/A,,Clear,160,2012-10-04 04:55:00
10:55 PM,45.0,26.1,48,30.08,10.0,ESE,3.5,-,N/A,,Clear,110,2012-10-04 05:55:00
11:55 PM,37.9,19.9,48,30.10,10.0,Calm,Calm,-,N/A,,Clear,0,2012-10-04 06:55:00